Address 0xdea12c8e5a38b6b9e43f4bfaaa0c0e578270a63d 1

 
 
Txn Hash Method
Block
From
To
Value [Txn Fee]
0xced47a59f6984fe20cf5804978b9375275f840e3e8723401704304b3216b94cfTransfer81492302021-06-09 14:32:13135 days 4 hrs ago0xdea12c8e5a38b6b9e43f4bfaaa0c0e578270a63dOUT0x384920b09b703ce73235c6987ea5777f10d7c6291.3176 BNB0.000105
0xafc34a395752becf980074d345dd576f5f2da3201c2d5e3e76d9eb6eea0de8edTransfer81491982021-06-09 14:30:37135 days 4 hrs ago0xdea12c8e5a38b6b9e43f4bfaaa0c0e578270a63dOUT Binance: BTCB Token0 BNB0.000105575
0x1d691f0e437a96d3fe5bc3f1f30e977bed8225aa466496c15023819c6d5a1d56Transfer81491862021-06-09 14:30:01135 days 4 hrs ago0xdea12c8e5a38b6b9e43f4bfaaa0c0e578270a63dOUT BUSD-T Stablecoin0 BNB0.000105695
0x5017afb9e04c7a27243731bd5d9e0b53c95b94020dac0ca99bd36373f40ed8c7Transfer81491832021-06-09 14:29:52135 days 4 hrs ago0xdea12c8e5a38b6b9e43f4bfaaa0c0e578270a63dOUT Binance: BUSD Stablecoin0 BNB0.000105695
0xa554b07648669344447f4d51b4bed3820f9475fe3245d23b9fd681f9c500de2fTransfer81491792021-06-09 14:29:40135 days 4 hrs ago0xdea12c8e5a38b6b9e43f4bfaaa0c0e578270a63dOUT Ethereum: ETH Token0 BNB0.000105575
0x6bacfbdf7d8c822c5124b3749c78d91d0b8dc1a254cfca689a1eaf9d7d4689d0Remove Liquidity...81490942021-06-09 14:25:25135 days 4 hrs ago0xdea12c8e5a38b6b9e43f4bfaaa0c0e578270a63dOUT 0xd9142e0cd3b2b46f6f6f1e20270fd290356323c30 BNB0.00079354
0xbf7431fa1c5919d7b500694952ba644fbdeae830cfa190594c7f9096ff34e23cRemove Liquidity...81490802021-06-09 14:24:43135 days 4 hrs ago0xdea12c8e5a38b6b9e43f4bfaaa0c0e578270a63dOUT 0xd9142e0cd3b2b46f6f6f1e20270fd290356323c30 BNB0.00086527
0x95a7bb632361341320502bfeba7e21a267074edc5d4445d2acd343dd13022645Remove Liquidity...81490682021-06-09 14:24:07135 days 4 hrs ago0xdea12c8e5a38b6b9e43f4bfaaa0c0e578270a63dOUT 0xd9142e0cd3b2b46f6f6f1e20270fd290356323c30 BNB0.000902975
0xd3ff48fddca0a0137168cbac58a56f61d266fc26774963217a2d36a220751111Remove Liquidity...81490552021-06-09 14:23:28135 days 4 hrs ago0xdea12c8e5a38b6b9e43f4bfaaa0c0e578270a63dOUT 0xd9142e0cd3b2b46f6f6f1e20270fd290356323c30 BNB0.000781605
0x094152383b3f6339c73938bb85fd716df58023627cc653cfbd57ccf0ead72696Remove Liquidity...81490482021-06-09 14:23:07135 days 4 hrs ago0xdea12c8e5a38b6b9e43f4bfaaa0c0e578270a63dOUT 0xd9142e0cd3b2b46f6f6f1e20270fd290356323c30 BNB0.000905395
0x51d34eb006f394a385f5d62179e2c54bda78a58fb353cbafe87a905d20bdabdfRemove Liquidity...81490412021-06-09 14:22:46135 days 4 hrs ago0xdea12c8e5a38b6b9e43f4bfaaa0c0e578270a63dOUT 0xd9142e0cd3b2b46f6f6f1e20270fd290356323c30 BNB0.001086945
0x70c99dd0658c13e780cf974de07238f66a4dd35fba8f0ef05c23891742e52ca5Remove Liquidity...81490332021-06-09 14:22:22135 days 4 hrs ago0xdea12c8e5a38b6b9e43f4bfaaa0c0e578270a63dOUT 0xd9142e0cd3b2b46f6f6f1e20270fd290356323c30 BNB0.000856785
0x26b70402cb766117abd42e9bdf8227561b3cb6da4c26b3738f02f301b6474cedRemove Liquidity...81490162021-06-09 14:21:31135 days 4 hrs ago0xdea12c8e5a38b6b9e43f4bfaaa0c0e578270a63dOUT 0xd9142e0cd3b2b46f6f6f1e20270fd290356323c30 BNB0.001040575
0x720df2b236bbb092184b01a56be6ffbb01caa35d6cb41fd0f9eb64b1f7d77877Remove Liquidity...81490072021-06-09 14:21:04135 days 4 hrs ago0xdea12c8e5a38b6b9e43f4bfaaa0c0e578270a63dOUT 0xd9142e0cd3b2b46f6f6f1e20270fd290356323c30 BNB0.000786025
0x1791c05907232c0ede01cffe71e248032124eb36b1cbad6312ab1af5f969d7e6Remove Liquidity...81489962021-06-09 14:20:31135 days 4 hrs ago0xdea12c8e5a38b6b9e43f4bfaaa0c0e578270a63dOUT 0xd9142e0cd3b2b46f6f6f1e20270fd290356323c30 BNB0.000970055
0xc2b239ae3eab12f69b80fd64344fb429794ed858a506a5a6eebe8360e4901c0cRemove Liquidity...81489752021-06-09 14:19:28135 days 4 hrs ago0xdea12c8e5a38b6b9e43f4bfaaa0c0e578270a63dOUT 0xd9142e0cd3b2b46f6f6f1e20270fd290356323c30 BNB0.000905455
0xfa1f2c25b705cd3784a9007e894c0161b09aff720550b9198a75827693352e90Remove Liquidity...81489682021-06-09 14:19:07135 days 4 hrs ago0xdea12c8e5a38b6b9e43f4bfaaa0c0e578270a63dOUT 0xd9142e0cd3b2b46f6f6f1e20270fd290356323c30 BNB0.001164545
0x8f5b829862e7ef00562fa123398159bdd5022cacf1715929a6ce0258506a9538Remove Liquidity...81489422021-06-09 14:17:49135 days 4 hrs ago0xdea12c8e5a38b6b9e43f4bfaaa0c0e578270a63dOUT 0xd9142e0cd3b2b46f6f6f1e20270fd290356323c30 BNB0.001054565
0x18f2f0df781cba988f09ea779f427b17beeaed986c55d1f522824a8bc1b5bad4Transfer79800582021-06-03 17:14:14141 days 1 hr ago0xdea12c8e5a38b6b9e43f4bfaaa0c0e578270a63dOUT0x8026ad3e3684a8c42721d44f7b35842a5e9615790.1 BNB0.000105
0x06a595388be53564d2305cacacb5c2a68b00e186e524bcbf2678263501542cdeApprove79218972021-06-01 16:37:26143 days 2 hrs ago0xdea12c8e5a38b6b9e43f4bfaaa0c0e578270a63dOUT 0x4d1f792ee972ba5296415f91c907c61332acfac50 BNB0.000221655
0xfab780123d592fc5afeb3e192b2593951d6aebca643b216d9b05cc2449d3f21cRemove Liquidity...79218772021-06-01 16:36:26143 days 2 hrs ago0xdea12c8e5a38b6b9e43f4bfaaa0c0e578270a63dOUT 0xd9142e0cd3b2b46f6f6f1e20270fd290356323c30 BNB0.0009806
0x3a6b624893182f8279579c2ad249fac9ca291fe11dd774163a2323c3014d43d6Approve79218292021-06-01 16:34:02143 days 2 hrs ago0xdea12c8e5a38b6b9e43f4bfaaa0c0e578270a63dOUT 0x238481feaea52e36fc523a949ad2611cc379d6ce0 BNB0.000221655
0x0fcd6a68ba15f425774d60dfeed97e9c581ffc1299148bf6aad2c93a1e4693ffTransfer79218162021-06-01 16:33:23143 days 2 hrs ago0x384920b09b703ce73235c6987ea5777f10d7c629 IN 0xdea12c8e5a38b6b9e43f4bfaaa0c0e578270a63d0.1 BNB0.000105
[ Download CSV Export 
Latest 9 internal transactions
Parent Txn Hash Block From To Value
0x6bacfbdf7d8c822c5124b3749c78d91d0b8dc1a254cfca689a1eaf9d7d4689d081490942021-06-09 14:25:25135 days 4 hrs ago 0xd9142e0cd3b2b46f6f6f1e20270fd290356323c30xdea12c8e5a38b6b9e43f4bfaaa0c0e578270a63d0.013491815548070223 BNB
0xbf7431fa1c5919d7b500694952ba644fbdeae830cfa190594c7f9096ff34e23c81490802021-06-09 14:24:43135 days 4 hrs ago 0xd9142e0cd3b2b46f6f6f1e20270fd290356323c30xdea12c8e5a38b6b9e43f4bfaaa0c0e578270a63d0.063523207372249178 BNB
0x95a7bb632361341320502bfeba7e21a267074edc5d4445d2acd343dd1302264581490682021-06-09 14:24:07135 days 4 hrs ago 0xd9142e0cd3b2b46f6f6f1e20270fd290356323c30xdea12c8e5a38b6b9e43f4bfaaa0c0e578270a63d0.000013896272118413 BNB
0x094152383b3f6339c73938bb85fd716df58023627cc653cfbd57ccf0ead7269681490482021-06-09 14:23:07135 days 4 hrs ago 0xd9142e0cd3b2b46f6f6f1e20270fd290356323c30xdea12c8e5a38b6b9e43f4bfaaa0c0e578270a63d0.000014136134674733 BNB
0x51d34eb006f394a385f5d62179e2c54bda78a58fb353cbafe87a905d20bdabdf81490412021-06-09 14:22:46135 days 4 hrs ago 0xd9142e0cd3b2b46f6f6f1e20270fd290356323c30xdea12c8e5a38b6b9e43f4bfaaa0c0e578270a63d0.069944855709632907 BNB
0xc2b239ae3eab12f69b80fd64344fb429794ed858a506a5a6eebe8360e4901c0c81489752021-06-09 14:19:28135 days 4 hrs ago 0xd9142e0cd3b2b46f6f6f1e20270fd290356323c30xdea12c8e5a38b6b9e43f4bfaaa0c0e578270a63d0.000116783953267749 BNB
0xfa1f2c25b705cd3784a9007e894c0161b09aff720550b9198a75827693352e9081489682021-06-09 14:19:07135 days 4 hrs ago 0xd9142e0cd3b2b46f6f6f1e20270fd290356323c30xdea12c8e5a38b6b9e43f4bfaaa0c0e578270a63d0.107724254389967878 BNB
0x8f5b829862e7ef00562fa123398159bdd5022cacf1715929a6ce0258506a953881489422021-06-09 14:17:49135 days 4 hrs ago 0xd9142e0cd3b2b46f6f6f1e20270fd290356323c30xdea12c8e5a38b6b9e43f4bfaaa0c0e578270a63d1.007078127846364942 BNB
0xfab780123d592fc5afeb3e192b2593951d6aebca643b216d9b05cc2449d3f21c79218772021-06-01 16:36:26143 days 2 hrs ago 0xd9142e0cd3b2b46f6f6f1e20270fd290356323c30xdea12c8e5a38b6b9e43f4bfaaa0c0e578270a63d0.069965277931833345 BNB
[ Download CSV Export 
Loading

Contract Name:
0 BNB

Compiler Version
0

Optimization Enabled:
0 BNB

Other Settings:
-NA-
Block Transaction Gas Used Reward
Age Block Fee Address BC Fee Address Voting Power Jailed Incoming
Block Uncle Number Difficulty Gas Used Reward
Loading
Loading
Make sure to use the "Vote Down" button for any spammy posts, and the "Vote Up" for interesting conversations.